This demonstration page uses our WeatherBlox Daily Observations layout. Learn more.

38.89511, -77.03637

Hourly Observations for October 25, 2018

Temp ( °F °C ) Dew Point ( °F °C ) Humidity (%) Winds ( mph kmh ) Pressure ( in mb ) Visibility ( mi km ) Precip ( " mm )
12:01 am 00:01 Clear 46 7.8 31 -0.6 56 56 NNW 8 13 30.27 1025 10 16.0934 0 0
12:52 am 00:52 Clear 43 6.1 32 0 65 65 NNW 7 11 30.27 1025 10 16.0934 0 0
1:52 am 01:52 Clear 43 6.1 32 0 65 65 NNW 9 15 30.27 1025 10 16.0934 0 0
2:52 am 02:52 Clear 43 6.1 30 -1.1 60 60 NNW 7 11 30.26 1025 10 16.0934 0 0
3:52 am 03:52 Mostly Clear 41 5 31 -0.6 67 67 NNW 9 15 30.24 1024 10 16.0934 0 0
4:52 am 04:52 Mostly Clear 41 5 30 -1.1 65 65 NNW 8 13 30.24 1024 10 16.0934 0 0
5:52 am 05:52 Mostly Clear 41 5 29 -1.7 62 62 NNW 10 17 30.25 1024 10 16.0934 0 0
6:52 am 06:52 Mostly Clear 42 5.6 29 -1.7 60 60 WNW 9 15 30.26 1025 10 16.0934 0 0
7:52 am 07:52 Mostly Sunny 42 5.6 30 -1.1 62 62 NW 8 13 30.27 1025 10 16.0934 0 0
8:52 am 08:52 Partly Cloudy 44 6.7 30 -1.1 58 58 NNW 12 19 30.27 1025 10 16.0934 0 0
9:52 am 09:52 Partly Cloudy 47 8.3 31 -0.6 54 54 NNW 12 19 30.26 1025 10 16.0934 0 0
10:52 am 10:52 Mostly Cloudy 50 10 31 -0.6 48 48 NW 9 15 30.24 1024 10 16.0934 0 0
11:52 am 11:52 Mostly Cloudy 51 10.6 31 -0.6 46 46 NNW 9 15 30.22 1023 10 16.0934 0 0
12:52 pm 12:52 Mostly Cloudy 52 11.1 31 -0.6 45 45 N 5 7 30.19 1023 10 16.0934 0 0
1:52 pm 13:52 Cloudy 53 11.7 32 0 45 45 WSW 8 13 30.16 1021 10 16.0934 0 0
2:52 pm 14:52 Cloudy 54 12.2 33 0.6 45 45 NW 5 7 30.14 1021 10 16.0934 0 0
3:52 pm 15:52 Cloudy 53 11.7 31 -0.6 43 43 W 10 17 30.14 1021 10 16.0934 0 0
4:52 pm 16:52 Cloudy 54 12.2 31 -0.6 42 42 VRB 6 9 30.13 1020 10 16.0934 0 0
5:52 pm 17:52 Cloudy 53 11.7 32 0 45 45 NNW 8 13 30.12 1020 10 16.0934 0 0
6:52 pm 18:52 Cloudy 50 10 34 1.1 54 54 N 5 7 30.12 1020 10 16.0934 0 0
7:52 pm 19:52 Cloudy 52 11.1 33 0.6 49 49 Calm 30.11 1020 10 16.0934 0 0
8:52 pm 20:52 Cloudy 51 10.6 33 0.6 50 50 NNE 5 7 30.12 1020 10 16.0934 0 0
9:52 pm 21:52 Cloudy 50 10 39 3.9 66 66 SSW 3 6 30.11 1020 10 16.0934 0 0
10:52 pm 22:52 Cloudy 50 10 39 3.9 66 66 SW 5 7 30.12 1020 10 16.0934 0 0
11:52 pm 23:52 Cloudy 49 9.4 40 4.4 71 71 Calm 30.13 1020 10 16.0934 0 0

Powered by AerisWeather